TimeCDT,TemperatureF,Dew PointF,Humidity,Sea Level PressureIn,VisibilityMPH,Wind Direction,Wind SpeedMPH,Gust SpeedMPH,PrecipitationIn,Events,Conditions,WindDirDegrees,DateUTC
12:15 AM,80.6,71.8,74,29.93,10.0,SSW,8.1,-,N/A,,Clear,210,2013-06-26 05:15:00
12:35 AM,79.9,71.4,75,29.94,10.0,SSW,5.8,-,N/A,,Clear,210,2013-06-26 05:35:00
12:55 AM,79.3,71.1,76,29.93,10.0,South,5.8,-,N/A,,Clear,190,2013-06-26 05:55:00
1:15 AM,78.1,71.1,79,29.93,10.0,South,4.6,-,N/A,,Clear,190,2013-06-26 06:15:00
1:35 AM,78.8,70.7,76,29.92,10.0,SSW,6.9,-,N/A,,Clear,200,2013-06-26 06:35:00
1:55 AM,78.3,70.7,77,29.92,10.0,South,4.6,-,N/A,,Clear,170,2013-06-26 06:55:00
2:15 AM,77.2,70.3,79,29.92,10.0,South,5.8,-,N/A,,Clear,190,2013-06-26 07:15:00
2:35 AM,76.6,70.7,82,29.92,10.0,SSE,4.6,-,N/A,,Clear,160,2013-06-26 07:35:00
2:55 AM,75.2,71.1,87,29.91,7.0,SE,5.8,-,N/A,,Clear,140,2013-06-26 07:55:00
3:15 AM,74.5,71.4,90,29.91,7.0,SE,4.6,-,N/A,,Clear,140,2013-06-26 08:15:00
3:35 AM,74.5,71.2,90,29.91,7.0,SSE,4.6,-,N/A,,Clear,160,2013-06-26 08:35:00
3:55 AM,73.9,71.1,91,29.90,7.0,Calm,Calm,-,N/A,,Clear,0,2013-06-26 08:55:00
4:15 AM,73.4,70.7,91,29.90,7.0,South,4.6,-,N/A,,Clear,180,2013-06-26 09:15:00
4:35 AM,73.4,70.7,91,29.90,7.0,South,6.9,-,N/A,,Clear,170,2013-06-26 09:35:00
4:55 AM,74.3,70.7,88,29.90,10.0,South,5.8,-,N/A,,Clear,180,2013-06-26 09:55:00
5:15 AM,73.9,70.3,88,29.90,10.0,South,8.1,-,N/A,,Clear,180,2013-06-26 10:15:00
5:35 AM,73.8,70.2,88,29.90,10.0,South,5.8,-,N/A,,Clear,190,2013-06-26 10:35:00
5:55 AM,73.8,70.0,88,29.91,7.0,South,5.8,-,N/A,,Clear,190,2013-06-26 10:55:00
6:15 AM,75.2,70.3,85,29.91,10.0,South,6.9,-,N/A,,Clear,190,2013-06-26 11:15:00
6:35 AM,77.0,70.0,79,29.91,10.0,South,10.4,-,N/A,,Clear,190,2013-06-26 11:35:00
6:55 AM,77.9,70.0,76,29.90,10.0,South,9.2,-,N/A,,Clear,190,2013-06-26 11:55:00
7:15 AM,78.8,70.0,74,29.91,10.0,South,8.1,-,N/A,,Scattered Clouds,190,2013-06-26 12:15:00
7:35 AM,79.0,70.0,74,29.91,10.0,South,10.4,-,N/A,,Scattered Clouds,190,2013-06-26 12:35:00
7:55 AM,79.5,70.2,73,29.91,10.0,SSW,8.1,-,N/A,,Scattered Clouds,200,2013-06-26 12:55:00
8:15 AM,79.7,70.7,74,29.92,10.0,SSW,8.1,-,N/A,,Clear,200,2013-06-26 13:15:00
8:35 AM,79.9,71.1,74,29.92,10.0,SSW,9.2,-,N/A,,Clear,200,2013-06-26 13:35:00
8:55 AM,79.7,71.1,75,29.93,10.0,SSW,8.1,-,N/A,,Scattered Clouds,210,2013-06-26 13:55:00
9:15 AM,79.2,71.4,77,29.93,10.0,SSW,6.9,-,N/A,Rain,Light Rain,210,2013-06-26 14:15:00
9:55 AM,77.0,73.6,89,29.86,7.0,South,10.4,-,0.06,Rain,Light Rain,180,2013-06-26 14:55:00
10:15 AM,78.4,74.7,88,29.87,10.0,South,11.5,-,N/A,,Clear,190,2013-06-26 15:15:00
10:35 AM,79.7,74.5,84,29.87,10.0,South,11.5,16.1,N/A,,Scattered Clouds,190,2013-06-26 15:35:00
10:55 AM,80.6,75.0,83,29.86,10.0,South,12.7,-,N/A,,Scattered Clouds,190,2013-06-26 15:55:00
11:15 AM,82.8,74.8,77,29.84,10.0,South,13.8,18.4,N/A,,Clear,190,2013-06-26 16:15:00
11:35 AM,84.6,74.5,72,29.84,10.0,SSW,16.1,-,N/A,,Clear,200,2013-06-26 16:35:00
11:55 AM,86.9,74.3,66,29.85,10.0,SW,16.1,24.2,N/A,,Clear,220,2013-06-26 16:55:00
12:15 PM,86.2,73.4,66,29.85,10.0,SSW,17.3,24.2,N/A,,Scattered Clouds,210,2013-06-26 17:15:00
12:35 PM,86.4,73.8,66,29.85,10.0,SSW,10.4,17.3,N/A,,Mostly Cloudy,200,2013-06-26 17:35:00
12:55 PM,87.1,73.0,63,29.84,10.0,SSW,21.9,25.3,N/A,,Scattered Clouds,200,2013-06-26 17:55:00
1:15 PM,87.3,73.0,62,29.84,10.0,SSW,21.9,-,N/A,,Scattered Clouds,210,2013-06-26 18:15:00
1:35 PM,88.5,73.4,61,29.84,10.0,SSW,16.1,25.3,N/A,,Scattered Clouds,210,2013-06-26 18:35:00
1:55 PM,90.1,73.6,58,29.83,10.0,SSW,21.9,29.9,N/A,,Clear,210,2013-06-26 18:55:00
2:15 PM,89.8,73.4,58,29.81,10.0,SSW,19.6,26.5,N/A,,Scattered Clouds,210,2013-06-26 19:15:00
2:35 PM,90.5,72.7,56,29.81,10.0,SW,23.0,29.9,N/A,,Clear,220,2013-06-26 19:35:00
2:55 PM,91.0,72.9,55,29.80,10.0,SW,23.0,31.1,N/A,,Clear,220,2013-06-26 19:55:00
3:15 PM,90.3,73.0,57,29.79,10.0,SSW,21.9,28.8,N/A,,Scattered Clouds,210,2013-06-26 20:15:00
3:35 PM,91.4,73.2,55,29.77,10.0,SW,19.6,25.3,N/A,,Scattered Clouds,220,2013-06-26 20:35:00
3:55 PM,91.8,73.0,54,29.76,10.0,SW,16.1,27.6,N/A,,Scattered Clouds,220,2013-06-26 20:55:00
4:15 PM,90.9,72.9,55,29.77,10.0,SW,21.9,27.6,N/A,,Scattered Clouds,220,2013-06-26 21:15:00
4:35 PM,89.1,72.9,59,29.76,10.0,SW,18.4,24.2,N/A,,Scattered Clouds,230,2013-06-26 21:35:00
4:55 PM,87.8,73.4,62,29.75,10.0,SW,11.5,-,N/A,,Scattered Clouds,220,2013-06-26 21:55:00
5:15 PM,86.9,73.6,64,29.76,10.0,SSW,9.2,18.4,N/A,,Scattered Clouds,210,2013-06-26 22:15:00
5:35 PM,86.5,73.9,66,29.75,10.0,SSW,13.8,21.9,N/A,,Scattered Clouds,210,2013-06-26 22:35:00
5:55 PM,86.2,74.1,67,29.75,10.0,SW,11.5,17.3,N/A,,Scattered Clouds,220,2013-06-26 22:55:00
6:15 PM,86.0,74.3,68,29.73,10.0,SSW,10.4,-,N/A,,Scattered Clouds,200,2013-06-26 23:15:00
6:35 PM,86.4,74.3,67,29.71,10.0,SSW,15.0,-,N/A,,Scattered Clouds,210,2013-06-26 23:35:00
6:55 PM,87.4,74.3,65,29.70,10.0,SSW,9.2,17.3,N/A,,Clear,200,2013-06-26 23:55:00
7:15 PM,86.5,74.3,67,29.72,10.0,SSW,12.7,-,N/A,,Clear,210,2013-06-27 00:15:00
7:35 PM,85.6,74.3,69,29.70,10.0,SSW,15.0,20.7,N/A,,Clear,210,2013-06-27 00:35:00
7:55 PM,85.5,74.7,70,29.70,10.0,SSW,9.2,12.7,N/A,Rain-Thunderstorm,Thunderstorms and Rain,200,2013-06-27 00:55:00
8:15 PM,81.0,75.6,84,29.72,7.0,WSW,15.0,23.0,0.06,Rain-Thunderstorm,Light Thunderstorms and Rain,240,2013-06-27 01:15:00
8:35 PM,79.7,74.7,84,29.74,10.0,WSW,9.2,-,0.06,,Clear,240,2013-06-27 01:35:00
8:55 PM,79.2,73.4,82,29.76,10.0,WSW,10.4,17.3,0.06,,Scattered Clouds,250,2013-06-27 01:55:00
9:15 PM,78.1,73.4,85,29.78,10.0,West,4.6,-,N/A,Thunderstorm,Scattered Clouds,270,2013-06-27 02:15:00
9:35 PM,77.4,72.7,85,29.77,10.0,West,5.8,-,N/A,,Scattered Clouds,280,2013-06-27 02:35:00
9:55 PM,76.8,72.7,87,29.79,10.0,Calm,Calm,-,N/A,,Scattered Clouds,0,2013-06-27 02:55:00
10:15 PM,76.6,73.0,89,29.80,10.0,Calm,Calm,-,N/A,,Scattered Clouds,0,2013-06-27 03:15:00
10:35 PM,75.6,72.7,91,29.80,10.0,SSE,4.6,-,N/A,,Clear,150,2013-06-27 03:35:00
10:55 PM,75.6,72.5,90,29.79,10.0,Calm,Calm,-,N/A,,Clear,0,2013-06-27 03:55:00
11:15 PM,75.2,72.7,92,29.81,10.0,WSW,4.6,-,N/A,,Scattered Clouds,240,2013-06-27 04:15:00
11:35 PM,75.2,72.3,91,29.80,10.0,Calm,Calm,-,N/A,,Scattered Clouds,0,2013-06-27 04:35:00
11:55 PM,75.2,72.5,91,29.80,10.0,Calm,Calm,-,N/A,,Clear,0,2013-06-27 04:55:00